Time,TemperatureF,DewpointF,PressureIn,WindDirection,WindDirectionDegrees,WindSpeedMPH,WindSpeedGustMPH,Humidity,HourlyPrecipIn,Conditions,Clouds,dailyrainin,SoftwareType,DateUTC
2013-04-29 00:03:00,50.0,49.0,30.05,NE,48,0.0,1.0,97,0.02,,,1.36,,2013-04-29 04:03:00,
2013-04-29 00:13:00,50.0,49.0,30.05,NE,48,0.0,1.0,97,0.02,,,1.36,,2013-04-29 04:13:00,
2013-04-29 00:23:00,50.0,49.0,30.05,NE,48,0.0,0.0,97,0.02,,,1.36,,2013-04-29 04:23:00,
2013-04-29 00:33:00,50.0,49.0,30.05,NE,48,0.0,0.0,97,0.03,,,1.37,,2013-04-29 04:33:00,
2013-04-29 00:43:00,50.0,49.0,30.05,NE,48,0.0,0.0,97,0.03,,,1.37,,2013-04-29 04:43:00,
2013-04-29 00:52:00,50.0,49.0,30.05,NE,48,0.0,0.0,97,0.04,,,1.38,,2013-04-29 04:52:00,
2013-04-29 01:02:00,50.0,49.0,30.05,NE,48,0.0,0.0,97,0.04,,,1.40,,2013-04-29 05:02:00,
2013-04-29 01:12:00,50.0,49.0,30.05,NE,48,0.0,0.0,97,0.04,,,1.40,,2013-04-29 05:12:00,
2013-04-29 01:22:00,50.0,49.0,30.04,NE,48,0.0,0.0,97,0.05,,,1.41,,2013-04-29 05:22:00,
2013-04-29 01:32:00,50.0,49.0,30.04,NE,48,0.0,0.0,97,0.04,,,1.41,,2013-04-29 05:32:00,
2013-04-29 01:42:00,50.0,49.0,30.04,NE,48,0.0,0.0,97,0.04,,,1.41,,2013-04-29 05:42:00,
2013-04-29 01:52:00,50.0,49.0,30.04,NE,48,0.0,0.0,97,0.03,,,1.41,,2013-04-29 05:52:00,
2013-04-29 02:02:00,50.0,49.0,30.04,NE,48,0.0,0.0,97,0.01,,,1.41,,2013-04-29 06:02:00,
2013-04-29 02:11:00,50.0,49.0,30.04,NE,48,0.0,0.0,97,0.01,,,1.41,,2013-04-29 06:11:00,
2013-04-29 02:21:00,50.0,49.0,30.03,NE,48,0.0,0.0,97,0.00,,,1.41,,2013-04-29 06:21:00,
2013-04-29 02:32:00,50.0,49.0,30.04,NE,48,0.0,1.0,97,0.00,,,1.41,,2013-04-29 06:32:00,
2013-04-29 02:42:00,50.0,49.0,30.04,NE,48,0.0,1.0,97,0.00,,,1.41,,2013-04-29 06:42:00,
2013-04-29 02:52:00,50.0,49.0,30.04,NE,48,0.0,0.0,97,0.00,,,1.41,,2013-04-29 06:52:00,
2013-04-29 03:01:00,50.0,49.0,30.03,NE,48,0.0,0.0,97,0.00,,,1.38,,2013-04-29 07:01:00,
2013-04-29 03:11:00,50.0,49.0,30.03,NE,48,0.0,0.0,97,0.00,,,1.38,,2013-04-29 07:11:00,
2013-04-29 03:21:00,50.0,49.0,30.02,NE,48,0.0,0.0,97,0.00,,,1.38,,2013-04-29 07:21:00,
2013-04-29 03:32:00,50.0,49.0,30.01,NE,48,0.0,1.0,97,0.00,,,1.38,,2013-04-29 07:32:00,
2013-04-29 03:42:00,50.0,49.0,30.01,NE,48,0.0,1.0,97,0.00,,,1.38,,2013-04-29 07:42:00,
2013-04-29 03:52:00,50.0,49.0,30.01,NE,48,1.0,3.0,97,0.00,,,1.38,,2013-04-29 07:52:00,
2013-04-29 04:03:00,50.0,49.0,30.00,NE,48,0.0,1.0,97,0.01,,,1.39,,2013-04-29 08:03:00,
2013-04-29 04:11:00,50.0,49.0,30.00,NE,48,0.0,1.0,97,0.01,,,1.39,,2013-04-29 08:11:00,
2013-04-29 04:21:00,50.0,49.0,30.01,NE,48,0.0,0.0,97,0.01,,,1.39,,2013-04-29 08:21:00,
2013-04-29 04:32:00,50.0,49.0,30.02,NE,48,0.0,0.0,97,0.01,,,1.39,,2013-04-29 08:32:00,
2013-04-29 04:42:00,50.0,49.0,30.02,NE,48,0.0,0.0,97,0.01,,,1.39,,2013-04-29 08:42:00,
2013-04-29 04:51:00,50.0,49.0,30.02,NE,48,0.0,0.0,97,0.01,,,1.39,,2013-04-29 08:51:00,
2013-04-29 05:01:00,50.0,49.0,30.01,NE,48,0.0,0.0,97,0.00,,,1.39,,2013-04-29 09:01:00,
2013-04-29 05:12:00,50.0,49.0,30.01,NE,48,0.0,0.0,97,0.00,,,1.39,,2013-04-29 09:12:00,
2013-04-29 05:21:00,50.0,49.0,30.01,NE,48,0.0,1.0,97,0.00,,,1.39,,2013-04-29 09:21:00,
2013-04-29 05:33:00,50.0,49.0,30.00,NE,48,0.0,0.0,98,0.00,,,1.39,,2013-04-29 09:33:00,
2013-04-29 05:42:00,50.0,49.0,30.00,NE,48,0.0,0.0,98,0.00,,,1.39,,2013-04-29 09:42:00,
2013-04-29 05:53:00,50.0,49.0,30.00,NE,48,0.0,0.0,97,0.00,,,1.39,,2013-04-29 09:53:00,
2013-04-29 06:02:00,50.0,49.0,29.99,NE,48,0.0,0.0,97,0.00,,,1.39,,2013-04-29 10:02:00,
2013-04-29 06:12:00,50.0,49.0,29.99,NE,48,0.0,0.0,97,0.00,,,1.39,,2013-04-29 10:12:00,
2013-04-29 06:23:00,50.0,49.0,30.00,NE,48,0.0,2.0,97,0.00,,,1.39,,2013-04-29 10:23:00,
2013-04-29 06:32:00,49.0,48.0,30.01,NE,48,0.0,0.0,97,0.00,,,1.39,,2013-04-29 10:32:00,
2013-04-29 06:42:00,49.0,48.0,30.01,NE,48,0.0,0.0,97,0.00,,,1.39,,2013-04-29 10:42:00,
2013-04-29 06:52:00,49.0,48.0,30.02,NE,48,0.0,0.0,97,0.00,,,1.39,,2013-04-29 10:52:00,
2013-04-29 07:03:00,50.0,49.0,30.02,NE,48,0.0,1.0,97,0.00,,,1.38,,2013-04-29 11:03:00,
2013-04-29 07:12:00,50.0,49.0,30.02,NE,48,0.0,1.0,97,0.00,,,1.38,,2013-04-29 11:12:00,
2013-04-29 07:22:00,50.0,49.0,30.03,NE,48,0.0,1.0,97,0.00,,,1.38,,2013-04-29 11:22:00,
2013-04-29 07:32:00,50.0,49.0,30.03,NE,48,0.0,0.0,97,0.00,,,1.38,,2013-04-29 11:32:00,
2013-04-29 07:42:00,50.0,49.0,30.03,NE,48,0.0,0.0,97,0.00,,,1.38,,2013-04-29 11:42:00,
2013-04-29 07:52:00,50.0,49.0,30.03,NE,48,0.0,0.0,97,0.00,,,1.38,,2013-04-29 11:52:00,
2013-04-29 08:01:00,49.0,48.0,30.03,NE,48,0.0,0.0,97,0.00,,,1.37,,2013-04-29 12:01:00,
2013-04-29 08:12:00,49.0,48.0,30.03,NE,48,0.0,0.0,97,0.00,,,1.37,,2013-04-29 12:12:00,
2013-04-29 08:22:00,49.0,48.0,30.03,NE,48,0.0,0.0,97,0.00,,,1.37,,2013-04-29 12:22:00,
2013-04-29 08:32:00,50.0,49.0,30.03,NE,48,0.0,1.0,97,0.00,,,1.37,,2013-04-29 12:32:00,
2013-04-29 08:42:00,50.0,49.0,30.03,NE,48,0.0,1.0,97,0.00,,,1.37,,2013-04-29 12:42:00,
2013-04-29 08:52:00,50.0,49.0,30.03,NE,48,0.0,1.0,97,0.00,,,1.37,,2013-04-29 12:52:00,
2013-04-29 09:01:00,50.0,49.0,30.03,NE,48,0.0,0.0,98,0.00,,,1.37,,2013-04-29 13:01:00,
2013-04-29 09:11:00,50.0,49.0,30.03,NE,48,0.0,0.0,98,0.00,,,1.37,,2013-04-29 13:11:00,
2013-04-29 09:21:00,51.0,50.0,30.03,NE,48,0.0,1.0,98,0.00,,,1.37,,2013-04-29 13:21:00,
2013-04-29 09:32:00,53.0,52.0,30.03,South,180,1.0,1.0,98,0.00,,,1.37,,2013-04-29 13:32:00,
2013-04-29 09:42:00,53.0,52.0,30.03,South,180,1.0,1.0,98,0.00,,,1.37,,2013-04-29 13:42:00,
2013-04-29 09:52:00,53.0,52.0,30.03,South,180,0.0,2.0,98,0.00,,,1.37,,2013-04-29 13:52:00,
2013-04-29 10:02:00,55.0,54.0,30.02,South,180,0.0,1.0,98,0.00,,,1.24,,2013-04-29 14:02:00,
2013-04-29 10:11:00,55.0,54.0,30.02,South,180,0.0,1.0,98,0.00,,,1.24,,2013-04-29 14:11:00,
2013-04-29 10:21:00,56.0,55.0,30.02,South,180,0.0,1.0,98,0.00,,,1.24,,2013-04-29 14:21:00,
2013-04-29 10:32:00,57.0,56.0,30.01,South,180,0.0,2.0,98,0.00,,,1.24,,2013-04-29 14:32:00,
2013-04-29 10:42:00,57.0,56.0,30.01,South,180,0.0,2.0,98,0.00,,,1.24,,2013-04-29 14:42:00,
2013-04-29 10:52:00,58.0,57.0,30.01,South,180,1.0,3.0,98,0.00,,,1.24,,2013-04-29 14:52:00,
2013-04-29 11:01:00,59.0,56.0,30.02,South,188,2.0,4.0,90,0.00,,,1.11,,2013-04-29 15:01:00,
2013-04-29 11:12:00,59.0,56.0,30.02,South,188,2.0,4.0,90,0.00,,,1.11,,2013-04-29 15:12:00,
2013-04-29 11:21:00,60.0,55.0,30.02,SSW,210,0.0,4.0,83,0.00,,,1.11,,2013-04-29 15:21:00,
2013-04-29 11:33:00,63.0,56.0,30.02,WSW,252,4.0,7.0,77,0.00,,,1.11,,2013-04-29 15:33:00,
2013-04-29 11:42:00,63.0,56.0,30.02,WSW,252,4.0,7.0,77,0.00,,,1.11,,2013-04-29 15:42:00,
2013-04-29 11:53:00,63.0,53.0,30.02,WNW,283,1.0,5.0,71,0.00,,,1.11,,2013-04-29 15:53:00,
2013-04-29 12:03:00,63.0,55.0,30.02,SW,220,3.0,6.0,74,0.00,,,0.95,,2013-04-29 16:03:00,
2013-04-29 12:12:00,63.0,55.0,30.02,SW,220,3.0,6.0,74,0.00,,,0.95,,2013-04-29 16:12:00,
2013-04-29 12:23:00,64.0,53.0,30.02,West,268,3.0,6.0,67,0.00,,,0.95,,2013-04-29 16:23:00,
2013-04-29 12:33:00,65.0,52.0,30.02,WSW,255,2.0,5.0,63,0.00,,,0.95,,2013-04-29 16:33:00,
2013-04-29 12:42:00,65.0,52.0,30.02,WSW,255,2.0,5.0,63,0.00,,,0.95,,2013-04-29 16:42:00,
2013-04-29 12:52:00,66.0,52.0,30.02,WSW,242,3.0,7.0,60,0.00,,,0.95,,2013-04-29 16:52:00,
2013-04-29 13:02:00,68.0,52.0,30.01,SW,217,1.0,6.0,57,0.00,,,0.73,,2013-04-29 17:02:00,
2013-04-29 13:12:00,68.0,52.0,30.01,SW,217,1.0,6.0,57,0.00,,,0.73,,2013-04-29 17:12:00,
2013-04-29 13:22:00,67.0,51.0,30.01,WSW,239,2.0,7.0,56,0.00,,,0.73,,2013-04-29 17:22:00,
2013-04-29 13:32:00,67.0,51.0,30.01,SW,231,2.0,5.0,56,0.00,,,0.73,,2013-04-29 17:32:00,
2013-04-29 13:42:00,67.0,51.0,30.01,SW,231,2.0,5.0,56,0.00,,,0.73,,2013-04-29 17:42:00,
2013-04-29 13:52:00,67.0,50.0,30.00,NNW,333,1.0,5.0,54,0.00,,,0.73,,2013-04-29 17:52:00,
2013-04-29 14:01:00,68.0,49.0,30.00,WSW,250,2.0,7.0,51,0.00,,,0.63,,2013-04-29 18:01:00,
2013-04-29 14:13:00,68.0,49.0,30.00,WSW,250,2.0,7.0,51,0.00,,,0.63,,2013-04-29 18:13:00,
2013-04-29 14:22:00,68.0,50.0,30.00,NW,305,1.0,6.0,52,0.00,,,0.63,,2013-04-29 18:22:00,
2013-04-29 14:32:00,69.0,48.0,30.00,SW,222,4.0,7.0,48,0.00,,,0.63,,2013-04-29 18:32:00,
2013-04-29 14:42:00,69.0,48.0,30.00,SW,222,4.0,7.0,48,0.00,,,0.63,,2013-04-29 18:42:00,
2013-04-29 14:51:00,70.0,47.0,29.99,ESE,102,1.0,7.0,44,0.00,,,0.63,,2013-04-29 18:51:00,
2013-04-29 15:01:00,69.0,47.0,29.99,East,83,2.0,5.0,46,0.00,,,0.59,,2013-04-29 19:01:00,
2013-04-29 15:11:00,69.0,47.0,29.99,East,83,2.0,5.0,46,0.00,,,0.59,,2013-04-29 19:11:00,
2013-04-29 15:21:00,69.0,54.0,29.99,North,11,5.0,12.0,58,0.00,,,0.59,,2013-04-29 19:21:00,
2013-04-29 15:32:00,66.0,53.0,29.99,NNE,14,4.0,9.0,62,0.00,,,0.59,,2013-04-29 19:32:00,
2013-04-29 15:42:00,66.0,53.0,29.99,NNE,14,4.0,9.0,62,0.00,,,0.59,,2013-04-29 19:42:00,
2013-04-29 15:52:00,65.0,54.0,29.98,WNW,282,2.0,4.0,67,0.00,,,0.59,,2013-04-29 19:52:00,
2013-04-29 16:02:00,66.0,55.0,29.98,NW,307,1.0,4.0,67,0.00,,,0.53,,2013-04-29 20:02:00,
2013-04-29 16:12:00,66.0,55.0,29.98,NW,307,1.0,4.0,67,0.00,,,0.53,,2013-04-29 20:12:00,
2013-04-29 16:22:00,67.0,55.0,29.97,WNW,282,3.0,6.0,65,0.00,,,0.53,,2013-04-29 20:22:00,
2013-04-29 16:32:00,66.0,54.0,29.97,West,268,3.0,5.0,65,0.00,,,0.53,,2013-04-29 20:32:00,
2013-04-29 16:42:00,66.0,54.0,29.97,West,268,3.0,5.0,65,0.00,,,0.53,,2013-04-29 20:42:00,
2013-04-29 16:52:00,66.0,55.0,29.96,SW,231,1.0,6.0,68,0.00,,,0.53,,2013-04-29 20:52:00,
2013-04-29 17:02:00,66.0,54.0,29.96,NNW,344,2.0,5.0,66,0.00,,,0.43,,2013-04-29 21:02:00,
2013-04-29 17:11:00,66.0,54.0,29.96,NNW,344,2.0,5.0,66,0.00,,,0.43,,2013-04-29 21:11:00,
2013-04-29 17:22:00,67.0,55.0,29.96,North,0,3.0,7.0,65,0.00,,,0.43,,2013-04-29 21:22:00,
2013-04-29 17:33:00,66.0,54.0,29.97,North,0,1.0,5.0,66,0.00,,,0.43,,2013-04-29 21:33:00,
2013-04-29 17:43:00,66.0,54.0,29.97,North,0,1.0,5.0,66,0.00,,,0.43,,2013-04-29 21:43:00,
2013-04-29 17:53:00,66.0,55.0,29.97,NNW,336,0.0,4.0,67,0.00,,,0.43,,2013-04-29 21:53:00,
2013-04-29 18:02:00,65.0,55.0,29.97,NNW,341,0.0,2.0,69,0.00,,,0.35,,2013-04-29 22:02:00,
2013-04-29 18:13:00,65.0,55.0,29.97,NNW,341,0.0,2.0,69,0.00,,,0.35,,2013-04-29 22:13:00,
2013-04-29 18:23:00,64.0,54.0,29.97,SE,126,0.0,5.0,70,0.00,,,0.35,,2013-04-29 22:23:00,
2013-04-29 18:32:00,64.0,54.0,29.98,North,0,0.0,5.0,71,0.00,,,0.35,,2013-04-29 22:32:00,
2013-04-29 18:42:00,64.0,54.0,29.98,North,0,0.0,5.0,71,0.00,,,0.35,,2013-04-29 22:42:00,
2013-04-29 18:52:00,63.0,53.0,29.98,North,0,0.0,2.0,71,0.00,,,0.35,,2013-04-29 22:52:00,
2013-04-29 19:02:00,64.0,54.0,29.98,North,351,0.0,4.0,71,0.00,,,0.20,,2013-04-29 23:02:00,
2013-04-29 19:12:00,64.0,54.0,29.98,North,351,0.0,4.0,71,0.00,,,0.20,,2013-04-29 23:12:00,
2013-04-29 19:22:00,64.0,54.0,29.98,ENE,69,1.0,3.0,70,0.00,,,0.20,,2013-04-29 23:22:00,
2013-04-29 19:32:00,63.0,54.0,29.98,NNE,17,1.0,4.0,72,0.00,,,0.20,,2013-04-29 23:32:00,
2013-04-29 19:42:00,63.0,54.0,29.98,NNE,17,1.0,4.0,72,0.00,,,0.20,,2013-04-29 23:42:00,
2013-04-29 19:52:00,63.0,54.0,29.98,ENE,57,1.0,4.0,72,0.00,,,0.20,,2013-04-29 23:52:00,
2013-04-29 20:01:00,62.0,54.0,29.99,ENE,68,0.0,4.0,75,0.00,,,0.11,,2013-04-30 00:01:00,
2013-04-29 20:11:00,62.0,54.0,29.99,ENE,68,0.0,4.0,75,0.00,,,0.11,,2013-04-30 00:11:00,
2013-04-29 20:21:00,62.0,54.0,29.99,ENE,68,0.0,1.0,75,0.00,,,0.11,,2013-04-30 00:21:00,
2013-04-29 20:32:00,61.0,54.0,30.00,ENE,68,0.0,3.0,77,0.00,,,0.11,,2013-04-30 00:32:00,
2013-04-29 20:42:00,61.0,54.0,30.00,ENE,68,0.0,3.0,77,0.00,,,0.11,,2013-04-30 00:42:00,
2013-04-29 20:51:00,61.0,54.0,30.00,ENE,68,0.0,1.0,77,0.00,,,0.11,,2013-04-30 00:51:00,
2013-04-29 21:02:00,61.0,54.0,30.01,ENE,68,0.0,1.0,79,0.00,,,0.09,,2013-04-30 01:02:00,
2013-04-29 21:11:00,61.0,54.0,30.01,ENE,68,0.0,1.0,79,0.00,,,0.09,,2013-04-30 01:11:00,
2013-04-29 21:22:00,60.0,53.0,30.01,ENE,68,0.0,2.0,79,0.00,,,0.09,,2013-04-30 01:22:00,
2013-04-29 21:32:00,60.0,53.0,30.01,ENE,61,1.0,4.0,79,0.00,,,0.09,,2013-04-30 01:32:00,
2013-04-29 21:41:00,60.0,53.0,30.01,ENE,61,1.0,4.0,79,0.00,,,0.09,,2013-04-30 01:41:00,
2013-04-29 21:51:00,60.0,53.0,30.02,North,0,0.0,4.0,79,0.00,,,0.09,,2013-04-30 01:51:00,
2013-04-29 22:01:00,60.0,53.0,30.03,ENE,58,0.0,2.0,79,0.00,,,0.08,,2013-04-30 02:01:00,
2013-04-29 22:11:00,60.0,53.0,30.03,ENE,58,0.0,2.0,79,0.00,,,0.08,,2013-04-30 02:11:00,
2013-04-29 22:21:00,60.0,53.0,30.03,ENE,58,0.0,3.0,79,0.00,,,0.08,,2013-04-30 02:21:00,
2013-04-29 22:31:00,60.0,54.0,30.03,ENE,57,0.0,4.0,80,0.00,,,0.08,,2013-04-30 02:31:00,
2013-04-29 22:41:00,60.0,54.0,30.03,ENE,57,0.0,4.0,80,0.00,,,0.08,,2013-04-30 02:41:00,
2013-04-29 22:51:00,60.0,54.0,30.03,ENE,57,0.0,1.0,81,0.00,,,0.08,,2013-04-30 02:51:00,
2013-04-29 23:01:00,59.0,53.0,30.03,NNE,23,0.0,3.0,81,0.00,,,0.08,,2013-04-30 03:01:00,
2013-04-29 23:11:00,59.0,54.0,30.03,NNE,23,0.0,1.0,82,0.00,,,0.08,,2013-04-30 03:11:00,
2013-04-29 23:21:00,59.0,54.0,30.03,NNE,23,0.0,1.0,82,0.00,,,0.08,,2013-04-30 03:21:00,
2013-04-29 23:33:00,59.0,54.0,30.03,NE,54,0.0,5.0,82,0.00,,,0.08,,2013-04-30 03:33:00,
2013-04-29 23:42:00,59.0,54.0,30.03,NE,54,0.0,5.0,82,0.00,,,0.08,,2013-04-30 03:42:00,
2013-04-29 23:52:00,59.0,54.0,30.03,ENE,61,0.0,4.0,82,0.00,,,0.08,,2013-04-30 03:52:00,